TimeEST,TemperatureF,Dew PointF,Humidity,Sea Level PressureIn,VisibilityMPH,Wind Direction,Wind SpeedMPH,Gust SpeedMPH,PrecipitationIn,Events,Conditions,WindDirDegrees,DateUTC
12:15 AM,32.9,21.2,62,30.08,10.0,West,4.6,-,N/A,,Overcast,280,2012-11-25 05:15:00
12:35 AM,32.7,23.2,68,30.08,10.0,West,4.6,-,N/A,Snow,Light Snow,280,2012-11-25 05:35:00
12:55 AM,32.9,22.1,65,30.07,10.0,Calm,Calm,-,N/A,,Overcast,0,2012-11-25 05:55:00
1:15 AM,33.4,21.0,60,30.07,10.0,Calm,Calm,-,N/A,,Overcast,0,2012-11-25 06:15:00
1:35 AM,33.6,19.9,57,30.06,10.0,West,11.5,-,N/A,,Mostly Cloudy,260,2012-11-25 06:35:00
1:55 AM,32.7,20.3,60,30.06,10.0,Calm,Calm,-,N/A,,Scattered Clouds,0,2012-11-25 06:55:00
2:15 AM,33.1,20.1,59,30.08,10.0,Calm,Calm,-,N/A,,Mostly Cloudy,0,2012-11-25 07:15:00
2:35 AM,32.9,20.1,59,30.08,10.0,Calm,Calm,-,N/A,,Overcast,0,2012-11-25 07:35:00
2:55 AM,33.6,20.3,58,30.08,10.0,Calm,Calm,-,N/A,,Overcast,0,2012-11-25 07:55:00
3:15 AM,32.7,19.6,58,30.08,10.0,Calm,Calm,-,N/A,,Overcast,0,2012-11-25 08:15:00
3:35 AM,32.0,18.1,57,30.07,10.0,Calm,Calm,-,N/A,,Mostly Cloudy,0,2012-11-25 08:35:00
3:55 AM,31.5,16.9,55,30.07,10.0,SW,8.1,-,N/A,,Mostly Cloudy,230,2012-11-25 08:55:00
4:15 AM,30.9,16.5,55,30.07,10.0,Calm,Calm,-,N/A,,Mostly Cloudy,0,2012-11-25 09:15:00
4:35 AM,30.9,16.9,56,30.07,10.0,Calm,Calm,-,N/A,,Scattered Clouds,0,2012-11-25 09:35:00
4:55 AM,31.1,17.4,57,30.08,10.0,WSW,11.5,-,N/A,,Clear,250,2012-11-25 09:55:00
5:15 AM,31.5,17.4,56,30.08,10.0,Calm,Calm,-,N/A,,Clear,0,2012-11-25 10:15:00
5:35 AM,32.0,17.1,54,30.08,10.0,Calm,Calm,-,N/A,,Clear,0,2012-11-25 10:35:00
5:55 AM,32.7,17.4,53,30.07,10.0,Calm,Calm,-,N/A,,Clear,0,2012-11-25 10:55:00
6:15 AM,33.1,17.8,53,30.06,10.0,Calm,Calm,-,N/A,,Clear,0,2012-11-25 11:15:00
6:35 AM,32.4,19.2,58,30.06,10.0,Calm,Calm,-,N/A,,Clear,0,2012-11-25 11:35:00
6:55 AM,32.4,19.6,59,30.07,10.0,Calm,Calm,-,N/A,,Clear,0,2012-11-25 11:55:00
7:15 AM,32.4,19.4,59,30.07,10.0,Calm,Calm,-,N/A,,Clear,0,2012-11-25 12:15:00
7:35 AM,32.0,19.6,60,30.04,10.0,Calm,Calm,-,N/A,,Clear,0,2012-11-25 12:35:00
7:55 AM,31.8,20.1,62,30.07,10.0,Calm,Calm,-,N/A,,Scattered Clouds,0,2012-11-25 12:55:00
8:15 AM,32.5,19.9,60,30.07,10.0,SW,5.8,-,N/A,,Scattered Clouds,230,2012-11-25 13:15:00
8:35 AM,33.8,19.0,55,30.07,10.0,Calm,Calm,-,N/A,,Scattered Clouds,0,2012-11-25 13:35:00
8:55 AM,34.3,18.9,53,30.06,10.0,Calm,Calm,-,N/A,,Clear,0,2012-11-25 13:55:00
9:15 AM,34.9,18.9,52,30.06,10.0,Calm,Calm,-,N/A,,Clear,0,2012-11-25 14:15:00
9:35 AM,35.2,19.2,52,30.05,10.0,Calm,Calm,-,N/A,,Clear,0,2012-11-25 14:35:00
9:55 AM,36.9,19.9,50,30.05,10.0,Calm,Calm,-,N/A,,Clear,0,2012-11-25 14:55:00
10:15 AM,37.6,18.9,47,30.05,10.0,Calm,Calm,-,N/A,,Clear,0,2012-11-25 15:15:00
10:35 AM,39.4,18.1,42,30.02,10.0,SSW,4.6,-,N/A,,Clear,210,2012-11-25 15:35:00
10:55 AM,39.7,17.6,41,30.01,10.0,Calm,Calm,-,N/A,,Clear,0,2012-11-25 15:55:00
11:15 AM,41.2,17.8,39,30.00,10.0,Calm,Calm,-,N/A,,Clear,0,2012-11-25 16:15:00
11:35 AM,44.4,15.3,31,29.98,10.0,WSW,12.7,19.6,N/A,,Clear,250,2012-11-25 16:35:00
11:55 AM,46.0,13.8,27,29.97,10.0,WSW,6.9,17.3,N/A,,Clear,250,2012-11-25 16:55:00
12:15 PM,46.6,11.5,24,29.95,10.0,NW,3.5,-,N/A,,Clear,310,2012-11-25 17:15:00
12:35 PM,48.2,14.0,25,29.94,10.0,WNW,5.8,-,N/A,,Scattered Clouds,290,2012-11-25 17:35:00
12:55 PM,49.5,14.4,25,29.93,10.0,WNW,10.4,-,N/A,,Mostly Cloudy,290,2012-11-25 17:55:00
1:15 PM,48.0,14.2,26,29.92,10.0,WNW,5.8,-,N/A,,Overcast,300,2012-11-25 18:15:00
1:35 PM,48.6,12.0,23,29.91,10.0,Calm,Calm,-,N/A,,Overcast,0,2012-11-25 18:35:00
1:55 PM,49.5,12.6,23,29.90,10.0,Calm,Calm,-,N/A,,Overcast,0,2012-11-25 18:55:00
2:15 PM,51.1,14.4,23,29.89,10.0,Calm,Calm,-,N/A,,Overcast,0,2012-11-25 19:15:00
2:35 PM,53.2,13.6,21,29.88,10.0,Calm,Calm,-,N/A,,Overcast,0,2012-11-25 19:35:00
2:55 PM,53.8,12.7,20,29.88,10.0,Calm,Calm,-,N/A,,Overcast,0,2012-11-25 19:55:00
3:15 PM,53.8,13.3,20,29.88,10.0,Calm,Calm,-,N/A,,Overcast,0,2012-11-25 20:15:00
3:35 PM,53.8,14.2,21,29.87,10.0,Calm,Calm,-,N/A,,Overcast,0,2012-11-25 20:35:00
3:55 PM,54.0,12.9,20,29.87,10.0,Calm,Calm,-,N/A,,Mostly Cloudy,0,2012-11-25 20:55:00
4:15 PM,52.3,13.6,21,29.87,10.0,South,4.6,-,N/A,,Scattered Clouds,170,2012-11-25 21:15:00
4:35 PM,51.1,14.4,23,29.88,10.0,Calm,Calm,-,N/A,,Clear,0,2012-11-25 21:35:00
4:55 PM,50.4,14.0,23,29.87,10.0,Calm,Calm,-,N/A,,Clear,0,2012-11-25 21:55:00
5:15 PM,50.0,14.5,24,29.87,10.0,Calm,Calm,-,N/A,,Clear,0,2012-11-25 22:15:00
5:35 PM,49.3,15.3,26,29.88,10.0,Calm,Calm,-,N/A,,Clear,0,2012-11-25 22:35:00
5:55 PM,45.1,17.6,33,29.88,10.0,Calm,Calm,-,N/A,,Clear,0,2012-11-25 22:55:00
6:15 PM,45.1,17.8,34,29.90,10.0,Calm,Calm,-,N/A,,Clear,0,2012-11-25 23:15:00
6:35 PM,46.2,18.1,33,29.91,10.0,Calm,Calm,-,N/A,,Clear,0,2012-11-25 23:35:00
6:55 PM,46.9,18.0,32,29.92,10.0,West,6.9,-,N/A,,Clear,280,2012-11-25 23:55:00
7:15 PM,48.2,18.1,30,29.93,10.0,Calm,Calm,-,N/A,,Clear,0,2012-11-26 00:15:00
7:35 PM,49.6,17.8,28,29.94,10.0,NW,13.8,20.7,N/A,,Clear,310,2012-11-26 00:35:00
7:55 PM,48.2,17.8,30,29.94,10.0,WNW,10.4,-,N/A,,Clear,290,2012-11-26 00:55:00
8:15 PM,48.7,17.6,29,29.95,10.0,WNW,10.4,18.4,N/A,,Clear,290,2012-11-26 01:15:00
8:35 PM,47.3,17.8,31,29.96,10.0,SW,6.9,-,N/A,,Clear,230,2012-11-26 01:35:00
8:55 PM,48.2,17.1,29,29.95,10.0,West,11.5,-,N/A,,Clear,270,2012-11-26 01:55:00
9:15 PM,46.8,17.4,31,29.96,10.0,Calm,Calm,-,N/A,,Clear,0,2012-11-26 02:15:00
9:35 PM,46.2,16.3,30,29.96,10.0,Calm,Calm,-,N/A,,Clear,0,2012-11-26 02:35:00
9:55 PM,46.4,16.7,31,29.96,10.0,West,9.2,-,N/A,,Clear,270,2012-11-26 02:55:00
10:15 PM,46.8,17.6,31,29.97,10.0,Calm,Calm,-,N/A,,Clear,0,2012-11-26 03:15:00
10:35 PM,48.4,17.8,30,29.97,10.0,West,10.4,16.1,N/A,,Clear,280,2012-11-26 03:35:00
10:55 PM,49.1,19.2,31,29.97,10.0,WSW,11.5,17.3,N/A,,Clear,240,2012-11-26 03:55:00
11:15 PM,48.9,19.0,31,29.97,10.0,West,13.8,21.9,N/A,,Clear,270,2012-11-26 04:15:00
11:35 PM,47.8,19.4,32,29.97,10.0,West,3.5,9.2,N/A,,Clear,270,2012-11-26 04:35:00
11:55 PM,49.5,19.6,31,29.97,10.0,WSW,13.8,24.2,N/A,,Clear,250,2012-11-26 04:55:00